Regional Weather Roundup
Issued by NWS

Home | Current Version | Previous Version | Text Only | Print | Product List | Glossary On
Versions: 1 2 3 4 5 6 7 8 9 10 11 12 13 14 15 16 17 18 19 20 21 22 23 24 25 26 27 28 29 30 31 32 33 34 35 36 37 38 39 40 41 42 43 44 45 46 47 48 49 50
000
ASUS43 KTOP 191208
RWRKS

WEATHER ROUNDUP FOR KANSAS
NATIONAL WEATHER SERVICE GOODLAND KS
600 AM CST FRI DEC 19 2014

NOTE:  "FAIR" INDICATES FEW OR NO CLOUDS BELOW 12,000 FEET WITH NO
SIGNIFICANT WEATHER AND/OR OBSTRUCTIONS TO VISIBILITY.

KSZ001>006-013>018-027>032-041>047-191300-
NORTHWEST KANSAS

CITY           SKY/WX    TMP DP  RH WIND       PRES   REMARKS
GOODLAND       CLEAR     25  20  81 W9        30.08S
6HR MIN TEMP:  23; 6HR MAX TEMP:  26;

HAYS           CLOUDY    34  25  69 CALM      30.15R
HILL CITY      CLOUDY    33  30  88 SW6       30.14S
6HR MIN TEMP:  32; 6HR MAX TEMP:  33;

RUSSELL        CLOUDY    31  30  96 S5        30.14F
6HR MIN TEMP:  31; 6HR MAX TEMP:  32;

$$

KSZ061>065-074>080-084>089-191300-
SOUTHWEST KANSAS

CITY           SKY/WX    TMP DP  RH WIND       PRES   REMARKS
DODGE CITY     CLOUDY    33  31  92 SW6       30.13S FOG
6HR MIN TEMP:  33; 6HR MAX TEMP:  33;

ELKHART          N/A     31  27  86 SW3         N/A
GARDEN CITY    MOCLDY    29  29 100 W5        30.12S FOG
6HR MIN TEMP:  28; 6HR MAX TEMP:  33;

GREAT BEND     CLOUDY    30  27  86 CALM      30.17S
LIBERAL        CLOUDY    36  30  80 SW3       30.13F
PRATT          CLOUDY    32  32 100 CALM      30.17S FOG
$$

KSZ066>073-081>083-090>101-191300-
SOUTHEAST KANSAS

CITY           SKY/WX    TMP DP  RH WIND       PRES   REMARKS
CHANUTE        CLOUDY    33  32  96 N5        30.22R FOG
6HR MIN TEMP:  33; 6HR MAX TEMP:  34;

COFFEYVILLE    CLOUDY    35  33  92 N5        30.23R
6HR MIN TEMP:  35; 6HR MAX TEMP:  36;

HUTCHINSON     CLOUDY    31  29  92 CALM      30.19S FOG
6HR MIN TEMP:  30; 6HR MAX TEMP:  31;

MEDICINE LODGE   N/A     33  32  96 CALM      30.18R
NEWTON         CLOUDY    28  23  80 E3        30.20F
PARSONS        CLOUDY    35  33  92 NE5       30.23R
6HR MIN TEMP:  35; 6HR MAX TEMP:  36;

WICHITA INTL   CLOUDY    31  28  89 NE7       30.19F FOG
6HR MIN TEMP:  31; 6HR MAX TEMP:  32;

WICHITA JABRA  CLOUDY    29  28  96 NE6       30.19F
6HR MIN TEMP:  29; 6HR MAX TEMP:  29;

WICHITA MCCONL CLOUDY    30  29  95 NE7       30.20S
WINFIELD       CLOUDY    32  31  96 NE5       30.22R
6HR MIN TEMP:  32; 6HR MAX TEMP:  33;

$$

KSZ007>012-019>026-033>040-048>060-102>105-191300-
NORTHEAST KANSAS

CITY           SKY/WX    TMP DP  RH WIND       PRES   REMARKS
CONCORDIA      CLOUDY    29  28  96 S5        30.18F
6HR MIN TEMP:  28; 6HR MAX TEMP:  29;

EMPORIA        CLOUDY    28  27  96 N5        30.22R
6HR MIN TEMP:  28; 6HR MAX TEMP:  30;

LAWRENCE       CLOUDY    31  28  89 N3        30.25S
6HR MIN TEMP:  31; 6HR MAX TEMP:  32;

MANHATTAN      CLOUDY    30  29  96 SW3       30.23S
6HR MIN TEMP:  30; 6HR MAX TEMP:  31;

MARYSVILLE     CLOUDY    30  28  93 CALM      30.21S
OLATHE IND     CLOUDY    30  29  96 N3        30.24S FOG
6HR MIN TEMP:  30; 6HR MAX TEMP:  31; 6HR PCP: TRACE;

OLATHE EXE     CLOUDY    31  29  92 N5        30.22F
6HR MIN TEMP:  31; 6HR MAX TEMP:  32;

SALINA         CLOUDY    30  28  92 SE5       30.21S FOG
6HR MIN TEMP:  30; 6HR MAX TEMP:  30;

TOPEKA BILLARD CLOUDY    31  28  89 W5        30.25S
6HR MIN TEMP:  31; 6HR MAX TEMP:  33;

TOPEKA FORBES  CLOUDY    30  28  92 CALM      30.24S FOG
6HR MIN TEMP:  30; 6HR MAX TEMP:  32;

$$


USA.gov is the U.S. government's official web portal to all federal, state and local government web resources and services.